GLOBALSTAR M094

Last updated on Mon Sep 21 2026 00:03:12 GMT+0000 (Coordinated Universal Time)

1 39074U 13005C 26263.55287493 -.00000102 00000+0 97167-5 0 9992 2 39074 51.9944 220.4393 0000338 87.9966 272.0939 12.62264821630510
UTC large
Height (km)
Speed (km/s)
/
Latitude / Longitude
Inclination (degrees)
Orbital Period (minutes)
Azimuth
Elevation
Range (km)
Doppler Factor

Next 0 passes for location: London (51.5072 / 0.1276)

No passes found over London.
GLOBALSTAR M094